www.pogodaiklimat.ru

Погода и климат >> Архив погоды >> Экваториальная Гвинея >> Malabo


ПОГОДА в Malabo

  • Прогноз погоды в Malabo
  • Монитор погоды в Malabo
  • Климат города

АРХИВ ПОГОДЫ в Malabo

Время (UTC), дата Ветер
(напр.,м/с)
 
Видим.   Явления Облачность Т
(С)
Тd
(С)
f
(%)
Тe
(С)
Тes
(С)
Комфортность P
(гПа)
Po
(гПа)
Тmin
(С)
Tmax
(С)
R
(мм)
R24
(мм)
S
(см)
21 4.12 штиль 0 10 км {гроза} 6/5 400 м
[Sc Ac trans]
+26.5 +25.5 94 +39 +39 очень
душно
1007.4
00 5.12 штиль 0 10 км 6/4 400 м
[Sc Ac trans]
+26.0 +24.6 92 +37 +37 очень
душно
1006.2
03 5.12 штиль 0 10 км 8/4 400 м
[Sc Ac trans]
+25.0 +23.6 92 +34 +34 очень
душно
1005.3
06 5.12 штиль 0 10 км 5/3 400 м
[Sc Ac trans]
+25.0 +24.3 96 +35 +35 очень
душно
1006.2 +23.7
09 5.12 штиль 0 10 км 5/3 420 м
[Cu med, cong Ac trans]
+30.9 +27.7 83 +50 +59 опасность
перегрева
1007.3
12 5.12 З 1 10 км 8/3 420 м
[Cu med, cong Ac trans]
+30.5 +28.1 87 +51 +59 опасность
перегрева
1005.5
15 5.12 ЮЗ 5 10 км 6/4 420 м
[Cu med, cong Ac cuf]
+31.0 +25.6 73 +46 +47 опасность
перегрева
1003.6
18 5.12 Ю 2 10 км 6/3 420 м
[Cu med, cong Ac trans]
+28.4 +25.6 85 +42 +42 опасность
перегрева
1005.4 +30.6
21 5.12 штиль 0 10 км 4/3 360 м
[Sc Ac trans]
+26.0 +24.6 92 +37 +37 очень
душно
1007.9
00 6.12 штиль 0 10 км 6/4 420 м
[Sc Ac trans]
+26.0 +24.6 92 +37 +37 очень
душно
1007.3
03 6.12 штиль 0 10 км 4/3 420 м
[Sc Ac trans]
+24.4 +23.6 95 +33 +33 очень
душно
1006.6
06 6.12 штиль 0 10 км 4/3 420 м
[Sc Ac trans]
+24.5 +23.8 96 +33 +34 очень
душно
1007.4 +24.5
09 6.12 Ю 4 8000 м 8/3 450 м
[Cu med, cong Ac trans]
+31.0 +25.4 72 +45 +48 опасность
перегрева
1008.0
12 6.12 ЮЗ 3 9000 м 9/3 420 м
[Cu med, cong Ac As]
+31.8 +25.2 68 +46 +50 опасность
перегрева
1006.4
15 6.12 З 5 10 км 8/4 420 м
[Cu med, cong Ac trans]
+31.0 +26.9 79 +48 +50 опасность
перегрева
1004.6
18 6.12 ЮЗ 3 10 км 6/4 400 м
[Sc Ac trans]
+28.5 +25.7 85 +42 +42 опасность
перегрева
1005.4 +32.1
21 6.12 штиль 0 10 км 6/3 400 м
[Sc Ac trans]
+27.0 +25.6 92 +40 +40 очень
душно
1008.0
00 7.12 10 км н/о +25.8 +22.9 84 +34 +34 очень
душно
1007.6
03 7.12 штиль 0 10 км 3/3 360 м
[Sc]
+24.4 +23.6 95 +33 +33 очень
душно
1007.2
06 7.12 ЮЗ 1 10 км 8/4 450 м
[Sc Ac trans]
+26.0 +24.8 93 +37 +37 очень
душно
1007.9 +26.1
09 7.12 З 3 10 км 8/5 420 м
[Sc Ac trans]
+30.6 +28.2 87 +51 +54 опасность
перегрева
1009.2
12 7.12 ЮЗ 3 10 км 8/4 420 м
[Cb cap Ac cuf]
+31.0 +26.9 79 +48 +53 опасность
перегрева
1008.0
15 7.12 Ю 5 10 км 8/5 400 м
[Cb cap Ac cuf]
+30.5 +28.1 87 +51 +52 опасность
перегрева
1006.5
18 7.12 штиль 0 9000 м зарница 9/5 400 м
[Cb cap Ac As]
+27.6 +24.6 84 +39 +39 очень
душно
1008.6 +30.5
21 7.12 штиль 0 10 км зарница 9/6 400 м
[Cb cap Ac As]
+26.0 +25.3 96 +38 +38 очень
душно
1010.7
00 8.12 ЮЗ 2 10 км 8/4 400 м
[Sc Ac trans]
+24.8 +24.1 96 +34 +34 очень
душно
1010.5
03 8.12 Ю 3 10 км 8/4 400 м
[Sc Ac trans]
+25.5 +24.1 92 +35 +35 очень
душно
1009.5
06 8.12 ЮЗ 2 10 км 9/5 400 м
[Sc Ac As]
+26.6 +24.1 86 +37 +37 очень
душно
1009.9 +24.0
09 8.12 штиль 0 10 км 9/5 400 м
[Cu med, cong Ac As]
+30.8 +25.4 73 +45 +48 опасность
перегрева
1011.6
12 8.12 ЮЗ 1 10 км 8/4 420 м
[Cu med, cong Ac trans]
+31.5 +25.6 71 +46 +54 опасность
перегрева
1009.6
15 8.12 ЮЗ 5 9000 м 10/3 400 м
[Cu hum Ac As]
+29.0 +25.4 81 +43 +43 опасность
перегрева
1007.6
18 8.12 Ю 2 8000 м 10/3 400 м
[Sc diur, vesp Ac As]
+27.8 +25.2 86 +40 +40 очень
душно
1009.1 +31.0
21 8.12 штиль 0 9000 м 8/5 400 м
[Sc Ac trans]
+26.5 +24.3 88 +37 +37 очень
душно
1011.2
00 9.12 штиль 0 9000 м 8/5 400 м
[Sc Ac trans]
+25.6 +24.4 93 +36 +36 очень
душно
1010.7
03 9.12 штиль 0 10 км 8/5 400 м
[Sc Ac trans]
+25.0 +24.3 96 +35 +35 очень
душно
1009.8
06 9.12 штиль 0 9000 м 8/5 400 м
[Sc Ac trans]
+24.1 +23.6 97 +33 +33 очень
душно
1011.1 +24.0
09 9.12 штиль 0 10 км 8/4 400 м
[Sc Ac trans]
+30.0 +25.3 76 +44 +49 опасность
перегрева
1011.2
12 9.12 З 3 10 км 8/4 400 м
[Cu med, cong Ac trans]
+31.5 +23.6 63 +43 +48 опасность
перегрева
1009.9
15 9.12 З 4 10 км 8/4 420 м
[Cu med, cong Ac trans]
+30.5 +25.6 75 +45 +46 опасность
перегрева
1008.3
18 9.12 ЮЗ 2 10 км 8/4 400 м
[Sc Ac trans]
+28.4 +24.2 78 +40 +40 очень
душно
1009.7 +31.5
21 9.12 штиль 0 10 км 5/3 420 м
[Sc Ac trans]
+26.0 +23.1 84 +35 +35 очень
душно
1012.6
00 10.12 штиль 0 9000 м 8/4 400 м
[Sc Ac trans]
+25.5 +22.6 84 +34 +34 очень
душно
1011.2
03 10.12 штиль 0 9000 м гроза без осадков 9/4 400 м
[Cb cap Ac As]
+25.0 +23.6 92 +34 +34 очень
душно
1010.5
06 10.12 Ю 3 8000 м гроза без осадков 10/4 400 м
[Cb cap Ac As]
+26.0 +24.0 89 +36 +36 очень
душно
1011.0 +25.4
09 10.12 штиль 0 10 км 8/5 400 м
[Cu med, cong Ac trans]
+30.5 +23.4 66 +41 +46 опасность
перегрева
1012.1
12 10.12 В 2 10 км {гроза} 8/4 420 м
[Cu med, cong Ac trans]
+30.5 +26.2 78 +46 +53 опасность
перегрева
1010.7
15 10.12 ЮЗ 4 9000 м 8/5 400 м
[Cu med, cong Ac trans]
+30.0 +24.4 72 +42 +43 опасность
перегрева
1008.1
18 10.12 штиль 0 9000 м 8/5 400 м
[Sc Ac trans]
+27.5 +25.1 87 +40 +40 очень
душно
1009.6 +30.5
21 10.12 штиль 0 10 км 8/4 400 м
[Sc Ac trans]
+25.5 +24.8 96 +36 +36 очень
душно
1011.9
00 11.12 штиль 0 10 км 5/3 400 м
[Sc Ac trans]
+25.0 +22.7 87 +33 +33 очень
душно
1011.2
03 11.12 штиль 0 10 км гроза без осадков 5/3 400 м
[Cb cap]
+25.0 +23.2 90 +33 +33 очень
душно
1009.7
06 11.12 штиль 0 10 км в посл. час гроза 8/4 400 м
[Cb cap Ac cuf]
+25.0 +23.6 92 +34 +34 очень
душно
1010.5 +24.0
09 11.12 З 3 10 км 8/5 400 м
[Cb cap Ac cuf]
+30.5 +24.9 72 +44 +46 опасность
перегрева
1012.0
12 11.12 ЮЗ 2 10 км 9/5 400 м
[Cu med, cong Ac As]
+30.5 +25.8 76 +45 +49 опасность
перегрева
1010.4
15 11.12 ЮЗ 4 10 км 10/3 400 м
[Cu med, cong Ac As]
+31.0 +25.4 72 +45 +46 опасность
перегрева
1008.5

 

Местоположение метеостанции Malabo (Экваториальная Гвинея): широта 3.76 долгота 8.71 высота над уровнем моря 23 м.

В архиве по умолчанию представлена погода в Malabo за последнюю неделю. Архивные данные за месяц целиком и за предыдущие месяцы, начиная с января 2011 года, Вы можете получить, выбрав интересующий диапазон дат из раскрывающегося списка и нажав кнопку "Ввод!".


*Определитесь, кто Вы:
робот инопланетянин человек

Внимание! Время в таблицах - всемирное. Для получения местного времени необходимо прибавить поправку, которая в Malabo равна 1 ч.

Смотрите также архив погоды в соседних городах и на ближайших метеорологических станциях:

Погода в Douala (Камерун) (116 км)
Погода в Kalabar (Нигерия) (141 км)
Погода в Port Harcourt (Нигерия) (223 км)
Погода в Bata (Экваториальная Гвинея) (239 км)
Погода в Enugu (Нигерия) (327 км)
Погода в Bitam (Габон) (360 км)
Погода в Libreville (Габон) (377 км)
Погода в Oyem (Габон) (400 км)
Погода в Makurdi (Нигерия) (442 км)
Погода в Port-Gentil (Габон) (496 км)

Пояснения к столбцам:

Ветер - указаны скорость ветра в м/с - средняя за 10 мин, порывы в срок и между сроками (в фигурных скобках) и направление, откуда дует ветер: С - северный, СВ - северо-восточный, В - восточный, ЮВ - юго-восточный, Ю - южный, ЮЗ - юго-западный, З - западный, СЗ - северо-западный.
Видимость - горизонтальная дальность видимости в метрах или километрах. При видимости от 1 до 10 км при отсутствии осадков обычно наблюдается дымка, при ухудшении видимости до 1 км и менее - туман. В сухую погоду видимость может ухудшаться дымом, пылью или мглою.
Явления - указаны атмосферные явления, наблюдавшиеся в срок или в последний час перед сроком; фигурными скобками обозначены явления, наблюдавшиеся между сроками (за 1-3 часа до срока); квадратными скобками обозначены град или гололедные отложения с указанием их диаметра в мм.
Облачность - указаны через наклонную черту общая и нижняя облачность в баллах и высота нижней границы облаков в метрах; квадратными скобками обозначены формы облаков: Ci - перистые, Cs - перисто-слоистые, Cc - перисто-кучевые, Ac - высококучевые, As - высокослоистые, Sc - слоисто-кучевые, Ns - слоисто-дождевые, Cu - кучевые, Cb - кучево-дождевые. Подробнее классификацию облаков см. в Атласе облаков (PDF).
T - Температура воздуха - температура, измеренная на высоте 2 м над землей.
Td - Температура точки росы - температура, при понижении до которой содержащийся в воздухе водяной пар достигнет насыщения.
f - Относительная влажность воздуха - влажноcть воздуха, измеренная на высоте 2 м над землей.
Te - Эффективная температура - температура, которую ощущает одетый по сезону человек в тени. Характеристика душности погоды. При расчете учитывается влияние влажности воздуха и скорости ветра на теплоощущения человека.
Tes - Эффективная температура на солнце - температура, которую ощущает человек, с поправкой на солнечный нагрев. Характеристика знойности погоды. Зависит от высоты солнца над горизонтом, облачности и скорости ветра. Ночью, в пасмурную погоду, а также при ветре 12 м/с и более поправка равна нулю.
P - Атмосферное давление - приведенное к уровню моря атмосферное давление.
Po - Атмосферное давление - измеренное на уровне метеостанции атмосферное давление.
Tmin - Минимальная температура - минимум температуры воздуха на высоте 2 м над землей.
Tmax - Максимальная температура - максимум температуры воздуха на высоте 2 м над землей.
R - Количество осадков - Количество выпавших осадков за период времени, мм. При наведении курсора мыши на число - период времени, за который выпало указанное количество осадков.
R24 - Количество осадков - Количество выпавших осадков за 24 часа, мм.
S - Снежный покров - Высота снежного покрова, см. При наведении курсора мыши на число - состояние снежного покрова и степень покрытия местности в баллах.